Hutchinson, MN

1:12 AM CDT on April 26, 2017 (GMT -0500)
Hutchinson Municipal-Butler

Weather History for KHCD - September, 2013

Change the Weather History Date:

Monday, September 2, 2013

  Actual Average Record
Temperature  
Mean Temperature 56 °F -  
Max Temperature 66 °F 77 °F 94 °F (1961)
Min Temperature 46 °F 55 °F 42 °F (1998)
Degree Days  
Heating Degree Days 9    
Growing Degree Days 6 (Base 50)    
Moisture  
Dew Point 51 °F    
Average Humidity 84    
Maximum Humidity 100    
Minimum Humidity 60    
Precipitation  
Precipitation 0.00 in - - ()
Sea Level Pressure  
Sea Level Pressure 30.08 in    
Wind  
Wind Speed 3 mph (NNW)    
Max Wind Speed 8 mph    
Max Gust Speed -    
Visibility 10 miles    
Events      
Averages and records for this station are not official NWS values.
T = Trace of Precipitation, MM = Missing Value Source: NWS Daily Summary

Daily Weather History Graph

Daily Weather History Graph

Search for Another Location

Airport or City:

Trip Planner

Search our weather history database for the weather conditions in past years. The results will help you decide how hot, cold, wet, or windy it might be!

Date:

Astronomy

Sep. 02, 2013 Rise Set
Actual Time 6:41 AM CDT 7:52 PM CDT
Civil Twilight 6:11 AM CDT 8:22 PM CDT
Nautical Twilight 5:34 AM CDT 8:58 PM CDT
Astronomical Twilight 4:56 AM CDT 9:36 PM CDT
Moon 3:54 AM CDT (9/2) 6:09 PM CDT (9/2)
Length of Visible Light 14h 11m
Length of Day
13h 10m
Waning Crescent, 8% of the Moon is Illuminated
Sep 2
Waning Crescent
Sep 5
New
Sep 12
First Quarter
Sep 19
Full
Sep 26
Last Quarter

Hourly Weather History & Observations

Time (CDT) Temp. Windchill Dew Point Humidity Pressure Visibility Wind Dir Wind Speed Gust Speed Precip Events Conditions
12:13 AM 55.4 °F - 54.3 °F 96% 30.03 in 10.0 mi WNW 4.6 mph - N/A   Clear
12:34 AM 55.2 °F - 54.1 °F 96% 30.03 in 10.0 mi NW 3.5 mph - N/A   Clear
12:53 AM 55.0 °F - 53.2 °F 94% 30.03 in 10.0 mi NNW 4.6 mph - N/A   Clear
1:14 AM 54.7 °F - 52.3 °F 92% 30.04 in 10.0 mi NNW 4.6 mph - N/A   Clear
1:34 AM 53.6 °F - 51.8 °F 94% 30.04 in 10.0 mi NNW 4.6 mph - N/A   Clear
1:53 AM 52.2 °F - 50.4 °F 94% 30.04 in 10.0 mi NW 3.5 mph - N/A   Clear
2:13 AM 49.1 °F - 48.4 °F 97% 30.04 in 10.0 mi WNW 3.5 mph - N/A   Clear
2:34 AM 49.8 °F - 49.3 °F 98% 30.04 in 10.0 mi West 5.8 mph - N/A   Clear
2:53 AM 51.4 °F - 50.9 °F 98% 30.04 in 10.0 mi West 5.8 mph - N/A   Clear
3:13 AM 51.4 °F - 50.5 °F 97% 30.04 in 10.0 mi WNW 4.6 mph - N/A   Clear
3:34 AM 51.1 °F - 50.2 °F 97% 30.04 in 10.0 mi WNW 4.6 mph - N/A   Clear
3:53 AM 51.6 °F - 50.5 °F 96% 30.05 in 10.0 mi WNW 3.5 mph - N/A   Clear
4:13 AM 50.9 °F - 50.0 °F 97% 30.05 in 10.0 mi WNW 4.6 mph - N/A   Clear
4:34 AM 50.0 °F - 49.6 °F 99% 30.05 in 10.0 mi WNW 3.5 mph - N/A   Clear
4:53 AM 48.6 °F - 47.8 °F 97% 30.05 in 10.0 mi Calm Calm - N/A   Clear
5:14 AM 47.5 °F - 47.3 °F 99% 30.06 in 10.0 mi Calm Calm - N/A   Clear
5:33 AM 47.3 °F - 47.1 °F 99% 30.06 in 10.0 mi Calm Calm - N/A   Clear
5:54 AM 47.3 °F - 46.9 °F 99% 30.07 in 10.0 mi Calm Calm - N/A   Clear
6:13 AM 46.9 °F - 46.8 °F 99% 30.07 in 10.0 mi Calm Calm - N/A   Clear
6:34 AM 46.4 °F 45.2 °F 46.2 °F 99% 30.08 in 10.0 mi WNW 3.5 mph - N/A   Clear
6:53 AM 46.4 °F - 46.0 °F 99% 30.09 in 10.0 mi Calm Calm - N/A   Clear
7:13 AM 47.7 °F - 47.7 °F 100% 30.10 in 10.0 mi Calm Calm - N/A   Clear
7:33 AM 50.0 °F - 50.0 °F 100% 30.10 in 10.0 mi Calm Calm - N/A   Clear
7:54 AM 53.4 °F - 51.8 °F 94% 30.10 in 10.0 mi NNW 4.6 mph - N/A   Clear
8:14 AM 54.9 °F - 52.3 °F 91% 30.10 in 10.0 mi North 5.8 mph - N/A   Clear
8:33 AM 56.3 °F - 53.1 °F 89% 30.11 in 10.0 mi North 4.6 mph - N/A   Clear
8:53 AM 57.4 °F - 53.1 °F 85% 30.11 in 10.0 mi North 5.8 mph - N/A   Clear
9:13 AM 59.0 °F - 53.6 °F 82% 30.11 in 10.0 mi North 8.1 mph - N/A   Scattered Clouds
9:33 AM 59.9 °F - 52.3 °F 76% 30.11 in 10.0 mi North 8.1 mph - N/A   Scattered Clouds
9:54 AM 59.9 °F - 50.9 °F 72% 30.12 in 10.0 mi North 6.9 mph - N/A   Mostly Cloudy
10:14 AM 59.0 °F - 51.1 °F 75% 30.13 in 10.0 mi North 6.9 mph - N/A   Overcast
10:33 AM 59.0 °F - 51.8 °F 77% 30.13 in 10.0 mi North 8.1 mph - N/A   Overcast
10:54 AM 59.0 °F - 51.8 °F 77% 30.13 in 10.0 mi North 8.1 mph - N/A   Overcast
11:14 AM 59.4 °F - 52.0 °F 77% 30.13 in 10.0 mi North 5.8 mph - N/A   Overcast
11:34 AM 59.2 °F - 52.2 °F 78% 30.13 in 10.0 mi North 3.5 mph - N/A   Overcast
11:53 AM 59.5 °F - 52.5 °F 78% 30.13 in 10.0 mi NNW 6.9 mph - N/A   Overcast
12:14 PM 60.1 °F - 52.2 °F 75% 30.13 in 10.0 mi NNE 4.6 mph - N/A   Overcast
12:33 PM 60.8 °F - 52.3 °F 74% 30.13 in 10.0 mi North 3.5 mph - N/A   Overcast
12:53 PM 61.0 °F - 53.1 °F 75% 30.12 in 10.0 mi North 5.8 mph - N/A   Overcast
1:14 PM 61.0 °F - 52.9 °F 75% 30.11 in 10.0 mi NNW 4.6 mph - N/A   Overcast
1:33 PM 62.1 °F - 52.7 °F 71% 30.11 in 10.0 mi North 6.9 mph - N/A   Overcast
1:53 PM 62.1 °F - 52.2 °F 70% 30.11 in 10.0 mi North 3.5 mph - N/A   Overcast
2:14 PM 62.1 °F - 52.5 °F 71% 30.11 in 10.0 mi NW 4.6 mph - N/A   Overcast
2:33 PM 62.4 °F - 52.2 °F 69% 30.11 in 10.0 mi Calm Calm - N/A   Overcast
2:54 PM 62.6 °F - 52.3 °F 69% 30.10 in 10.0 mi NW 3.5 mph - N/A   Overcast
3:13 PM 63.1 °F - 52.5 °F 68% 30.10 in 10.0 mi North 3.5 mph - N/A   Overcast
3:33 PM 63.5 °F - 52.3 °F 67% 30.10 in 10.0 mi Calm Calm - N/A   Overcast
3:54 PM 62.8 °F - 52.0 °F 68% 30.09 in 10.0 mi North 4.6 mph - N/A   Scattered Clouds
4:13 PM 64.6 °F - 52.2 °F 64% 30.08 in 10.0 mi Calm Calm - N/A   Scattered Clouds
4:34 PM 66.4 °F - 52.9 °F 62% 30.08 in 10.0 mi NNW 3.5 mph - N/A   Clear
4:53 PM 66.2 °F - 53.2 °F 63% 30.07 in 10.0 mi West 3.5 mph - N/A   Scattered Clouds
5:14 PM 66.9 °F - 52.7 °F 60% 30.07 in 10.0 mi Calm Calm - N/A   Scattered Clouds
5:34 PM 66.7 °F - 53.1 °F 61% 30.07 in 10.0 mi NW 4.6 mph - N/A   Clear
5:53 PM 66.4 °F - 53.4 °F 63% 30.07 in 10.0 mi West 3.5 mph - N/A   Clear
6:14 PM 66.2 °F - 53.2 °F 63% 30.07 in 10.0 mi Calm Calm - N/A   Clear
6:33 PM 66.0 °F - 54.3 °F 66% 30.07 in 10.0 mi Calm Calm - N/A   Clear
6:53 PM 65.5 °F - 54.7 °F 68% 30.07 in 10.0 mi Calm Calm - N/A   Clear
7:13 PM 64.9 °F - 54.9 °F 70% 30.07 in 10.0 mi Calm Calm - N/A   Clear
7:33 PM 63.7 °F - 54.0 °F 71% 30.06 in 10.0 mi Calm Calm - N/A   Clear
7:51 PM 60.6 °F - 54.5 °F 80% 30.06 in 10.0 mi Calm Calm - N/A   Clear
8:13 PM 59.0 °F - 54.5 °F 85% 30.06 in 10.0 mi Calm Calm - N/A   Clear
8:33 PM 55.6 °F - 53.2 °F 92% 30.07 in 10.0 mi Calm Calm - N/A   Clear
8:54 PM 55.2 °F - 53.2 °F 93% 30.07 in 10.0 mi Calm Calm - N/A   Clear
9:13 PM 52.3 °F - 51.6 °F 97% 30.08 in 10.0 mi Calm Calm - N/A   Clear
9:33 PM 51.6 °F - 50.9 °F 97% 30.08 in 10.0 mi Calm Calm - N/A   Clear
9:53 PM 50.9 °F - 50.4 °F 98% 30.08 in 10.0 mi Calm Calm - N/A   Clear
10:13 PM 49.3 °F - 48.7 °F 98% 30.08 in 10.0 mi Calm Calm - N/A   Clear
10:33 PM 48.2 °F - 47.7 °F 98% 30.08 in 10.0 mi Calm Calm - N/A   Clear
10:53 PM 48.2 °F - 47.8 °F 99% 30.08 in 10.0 mi Calm Calm - N/A   Clear
11:14 PM 46.9 °F - 46.2 °F 97% 30.08 in 10.0 mi Calm Calm - N/A   Clear
11:33 PM 46.6 °F - 46.2 °F 99% 30.07 in 10.0 mi Calm Calm - N/A   Clear
11:53 PM 46.2 °F - 46.0 °F 99% 30.07 in 10.0 mi Calm Calm - N/A   Clear